Time,TemperatureF,DewpointF,PressureIn,WindDirection,WindDirectionDegrees,WindSpeedMPH,WindSpeedGustMPH,Humidity,HourlyPrecipIn,Conditions,Clouds,dailyrainin,SoftwareType,DateUTC
2013-01-12 00:03:00,65.1,61.1,29.79,South,180,3.5,6.7,87,0.00,,,0.00,WUHU216HW,2013-01-12 06:03:00,
2013-01-12 00:08:00,65.1,61.1,29.79,South,180,8.2,8.2,87,0.00,,,0.00,WUHU216HW,2013-01-12 06:08:00,
2013-01-12 00:13:00,65.1,61.1,29.79,South,180,0.0,8.2,87,0.00,,,0.00,WUHU216HW,2013-01-12 06:13:00,
2013-01-12 00:18:00,65.1,61.1,29.79,South,180,2.9,3.1,87,0.00,,,0.00,WUHU216HW,2013-01-12 06:18:00,
2013-01-12 00:23:00,65.1,61.1,29.79,South,180,0.6,3.1,87,0.00,,,0.00,WUHU216HW,2013-01-12 06:23:00,
2013-01-12 00:28:00,65.1,61.1,29.79,SW,225,0.0,7.8,87,0.00,,,0.00,WUHU216HW,2013-01-12 06:28:00,
2013-01-12 00:33:00,65.1,61.1,29.79,SSE,158,0.0,9.1,87,0.00,,,0.00,WUHU216HW,2013-01-12 06:33:00,
2013-01-12 00:39:00,65.1,61.1,29.79,SSW,203,0.0,9.1,87,0.00,,,0.00,WUHU216HW,2013-01-12 06:39:00,
2013-01-12 00:44:00,65.3,61.3,29.80,South,180,4.4,4.4,87,0.00,,,0.00,WUHU216HW,2013-01-12 06:44:00,
2013-01-12 00:49:00,65.1,61.1,29.79,SSW,203,4.0,4.4,87,0.00,,,0.00,WUHU216HW,2013-01-12 06:49:00,
2013-01-12 00:54:00,65.1,61.1,29.79,SW,225,0.0,4.0,87,0.00,,,0.00,WUHU216HW,2013-01-12 06:54:00,
2013-01-12 00:59:00,65.1,61.1,29.79,South,180,0.0,4.0,87,0.00,,,0.00,WUHU216HW,2013-01-12 06:59:00,
2013-01-12 01:08:00,65.1,61.1,29.79,South,180,0.0,0.0,87,0.00,,,0.00,WUHU216HW,2013-01-12 07:08:00,
2013-01-12 01:13:00,65.3,61.6,29.79,South,180,0.0,0.0,88,0.00,,,0.00,WUHU216HW,2013-01-12 07:13:00,
2013-01-12 01:18:00,65.3,61.6,29.78,SSW,203,0.0,9.6,88,0.00,,,0.00,WUHU216HW,2013-01-12 07:18:00,
2013-01-12 01:23:00,65.3,61.6,29.78,South,180,6.7,9.6,88,0.00,,,0.00,WUHU216HW,2013-01-12 07:23:00,
2013-01-12 01:28:00,65.3,61.6,29.78,South,180,0.0,7.1,88,0.00,,,0.00,WUHU216HW,2013-01-12 07:28:00,
2013-01-12 01:33:00,65.4,61.8,29.78,SSW,203,0.0,7.1,88,0.00,,,0.00,WUHU216HW,2013-01-12 07:33:00,
2013-01-12 01:38:00,65.3,61.6,29.77,South,180,3.8,3.8,88,0.00,,,0.00,WUHU216HW,2013-01-12 07:38:00,
2013-01-12 01:43:00,65.4,61.8,29.77,South,180,6.0,6.0,88,0.00,,,0.00,WUHU216HW,2013-01-12 07:43:00,
2013-01-12 01:48:00,65.4,62.1,29.76,SSE,158,7.3,7.3,89,0.00,,,0.00,WUHU216HW,2013-01-12 07:48:00,
2013-01-12 01:53:00,65.4,62.1,29.76,South,180,5.1,10.9,89,0.00,,,0.00,WUHU216HW,2013-01-12 07:53:00,
2013-01-12 01:58:00,65.4,62.1,29.76,South,180,3.5,10.9,89,0.00,,,0.00,WUHU216HW,2013-01-12 07:58:00,
2013-01-12 02:08:00,65.4,62.1,29.76,South,180,3.5,3.5,89,0.00,,,0.00,WUHU216HW,2013-01-12 08:08:00,
2013-01-12 02:13:00,65.3,61.9,29.75,South,180,4.9,4.9,89,0.00,,,0.00,WUHU216HW,2013-01-12 08:13:00,
2013-01-12 02:18:00,65.4,62.1,29.74,SE,135,6.9,7.8,89,0.00,,,0.00,WUHU216HW,2013-01-12 08:18:00,
2013-01-12 02:23:00,65.4,62.1,29.75,SSW,203,6.2,7.8,89,0.00,,,0.00,WUHU216HW,2013-01-12 08:23:00,
2013-01-12 02:28:00,65.4,62.1,29.76,South,180,5.8,10.5,89,0.00,,,0.00,WUHU216HW,2013-01-12 08:28:00,
2013-01-12 02:33:00,65.4,62.1,29.76,SSW,203,0.0,10.5,89,0.00,,,0.00,WUHU216HW,2013-01-12 08:33:00,
2013-01-12 02:38:00,65.4,62.1,29.76,South,180,0.0,4.6,89,0.00,,,0.00,WUHU216HW,2013-01-12 08:38:00,
2013-01-12 02:43:00,65.4,62.1,29.75,SSE,158,7.1,7.1,89,0.00,,,0.00,WUHU216HW,2013-01-12 08:43:00,
2013-01-12 02:48:00,65.4,62.1,29.76,South,180,2.6,9.3,89,0.00,,,0.00,WUHU216HW,2013-01-12 08:48:00,
2013-01-12 02:53:00,65.4,62.4,29.76,SE,135,2.0,9.3,90,0.00,,,0.00,WUHU216HW,2013-01-12 08:53:00,
2013-01-12 02:58:00,65.4,62.1,29.76,SSE,158,2.0,9.1,89,0.00,,,0.00,WUHU216HW,2013-01-12 08:58:00,
2013-01-12 03:08:00,65.4,62.1,29.76,SSE,158,2.0,2.0,89,0.00,,,0.00,WUHU216HW,2013-01-12 09:08:00,
2013-01-12 03:13:00,65.4,62.1,29.77,South,180,0.0,2.0,89,0.00,,,0.00,WUHU216HW,2013-01-12 09:13:00,
2013-01-12 03:18:00,65.4,62.1,29.77,South,180,0.0,2.2,89,0.00,,,0.00,WUHU216HW,2013-01-12 09:18:00,
2013-01-12 03:23:00,65.4,62.4,29.77,South,180,6.4,6.4,90,0.00,,,0.00,WUHU216HW,2013-01-12 09:23:00,
2013-01-12 03:28:00,65.4,62.4,29.76,South,180,0.0,6.4,90,0.00,,,0.00,WUHU216HW,2013-01-12 09:28:00,
2013-01-12 03:33:00,65.4,62.4,29.76,SSW,203,0.0,0.0,90,0.00,,,0.00,WUHU216HW,2013-01-12 09:33:00,
2013-01-12 03:38:00,65.4,62.4,29.75,SSE,158,2.9,6.9,90,0.00,,,0.00,WUHU216HW,2013-01-12 09:38:00,
2013-01-12 03:43:00,65.4,62.4,29.75,South,180,5.3,6.9,90,0.00,,,0.00,WUHU216HW,2013-01-12 09:43:00,
2013-01-12 03:48:00,65.4,62.4,29.74,SSE,158,0.0,6.9,90,0.00,,,0.00,WUHU216HW,2013-01-12 09:48:00,
2013-01-12 03:53:00,65.4,62.4,29.75,SSE,158,0.0,3.8,90,0.00,,,0.00,WUHU216HW,2013-01-12 09:53:00,
2013-01-12 03:58:00,65.4,62.4,29.75,South,180,4.6,4.6,90,0.00,,,0.00,WUHU216HW,2013-01-12 09:58:00,
2013-01-12 04:08:00,65.4,62.4,29.74,South,180,4.6,4.6,90,0.00,,,0.00,WUHU216HW,2013-01-12 10:08:00,
2013-01-12 04:13:00,65.3,62.3,29.74,South,180,0.0,4.6,90,0.00,,,0.00,WUHU216HW,2013-01-12 10:13:00,
2013-01-12 04:18:00,65.3,62.3,29.74,South,180,0.0,2.0,90,0.00,,,0.00,WUHU216HW,2013-01-12 10:18:00,
2013-01-12 04:23:00,65.3,62.3,29.74,South,180,4.4,4.4,90,0.00,,,0.00,WUHU216HW,2013-01-12 10:23:00,
2013-01-12 04:28:00,65.3,62.3,29.74,SSE,158,0.0,4.4,90,0.00,,,0.00,WUHU216HW,2013-01-12 10:28:00,
2013-01-12 04:33:00,65.3,62.3,29.74,SSE,158,0.0,0.0,90,0.00,,,0.00,WUHU216HW,2013-01-12 10:33:00,
2013-01-12 04:38:00,65.3,62.3,29.75,SSE,158,0.0,0.0,90,0.00,,,0.00,WUHU216HW,2013-01-12 10:38:00,
2013-01-12 04:43:00,65.3,62.3,29.75,SSE,158,0.0,0.0,90,0.00,,,0.00,WUHU216HW,2013-01-12 10:43:00,
2013-01-12 04:48:00,65.3,62.3,29.74,SSE,158,0.0,0.0,90,0.00,,,0.00,WUHU216HW,2013-01-12 10:48:00,
2013-01-12 04:53:00,65.3,62.3,29.74,SSE,158,0.0,0.0,90,0.00,,,0.00,WUHU216HW,2013-01-12 10:53:00,
2013-01-12 04:58:00,65.8,62.4,29.75,SSE,158,0.0,0.0,89,0.00,,,0.00,WUHU216HW,2013-01-12 10:58:00,
2013-01-12 05:08:00,65.8,62.4,29.75,SSE,158,0.0,0.0,89,0.00,,,0.00,WUHU216HW,2013-01-12 11:08:00,
2013-01-12 05:13:00,65.4,62.1,29.74,SSE,158,0.0,0.0,89,0.00,,,0.00,WUHU216HW,2013-01-12 11:13:00,
2013-01-12 05:18:00,65.3,62.3,29.74,SSE,158,0.0,0.0,90,0.00,,,0.00,WUHU216HW,2013-01-12 11:18:00,
2013-01-12 05:23:00,65.3,62.3,29.74,SE,135,0.0,0.0,90,0.00,,,0.00,WUHU216HW,2013-01-12 11:23:00,
2013-01-12 05:28:00,65.1,62.1,29.74,South,180,0.0,0.0,90,0.00,,,0.00,WUHU216HW,2013-01-12 11:28:00,
2013-01-12 05:33:00,65.1,62.1,29.73,South,180,0.0,0.0,90,0.00,,,0.00,WUHU216HW,2013-01-12 11:33:00,
2013-01-12 05:38:00,65.1,62.1,29.74,South,180,0.0,0.0,90,0.00,,,0.00,WUHU216HW,2013-01-12 11:38:00,
2013-01-12 05:43:00,65.1,62.1,29.74,South,180,0.0,0.0,90,0.00,,,0.00,WUHU216HW,2013-01-12 11:43:00,
2013-01-12 05:48:00,65.1,62.1,29.74,South,180,0.0,0.0,90,0.00,,,0.00,WUHU216HW,2013-01-12 11:48:00,
2013-01-12 05:53:00,65.1,62.1,29.74,South,180,0.0,0.0,90,0.00,,,0.00,WUHU216HW,2013-01-12 11:53:00,
2013-01-12 05:59:00,65.1,62.4,29.74,South,180,0.0,0.0,91,0.00,,,0.00,WUHU216HW,2013-01-12 11:59:00,
2013-01-12 06:04:00,65.1,62.4,29.74,South,180,0.0,0.0,91,0.00,,,0.00,WUHU216HW,2013-01-12 12:04:00,
2013-01-12 06:09:00,65.1,62.4,29.75,South,180,0.0,0.0,91,0.00,,,0.00,WUHU216HW,2013-01-12 12:09:00,
2013-01-12 06:14:00,65.1,62.4,29.75,South,180,0.0,0.0,91,0.00,,,0.00,WUHU216HW,2013-01-12 12:14:00,
2013-01-12 06:19:00,64.9,62.2,29.75,South,180,0.0,0.0,91,0.00,,,0.00,WUHU216HW,2013-01-12 12:19:00,
2013-01-12 06:24:00,64.9,62.2,29.74,South,180,0.0,0.0,91,0.00,,,0.00,WUHU216HW,2013-01-12 12:24:00,
2013-01-12 06:29:00,64.9,62.2,29.75,South,180,0.0,0.0,91,0.00,,,0.00,WUHU216HW,2013-01-12 12:29:00,
2013-01-12 06:34:00,64.9,62.2,29.75,South,180,0.0,0.0,91,0.00,,,0.00,WUHU216HW,2013-01-12 12:34:00,
2013-01-12 06:39:00,64.7,62.1,29.75,South,180,0.0,0.0,91,0.00,,,0.00,WUHU216HW,2013-01-12 12:39:00,
2013-01-12 06:44:00,64.7,62.1,29.74,South,180,0.0,0.0,91,0.00,,,0.00,WUHU216HW,2013-01-12 12:44:00,
2013-01-12 06:49:00,64.5,61.9,29.74,South,180,0.0,0.0,91,0.00,,,0.00,WUHU216HW,2013-01-12 12:49:00,
2013-01-12 06:54:00,64.4,61.8,29.74,South,180,0.0,0.0,91,0.00,,,0.00,WUHU216HW,2013-01-12 12:54:00,
2013-01-12 06:59:00,64.2,61.6,29.74,South,180,0.0,0.0,91,0.00,,,0.00,WUHU216HW,2013-01-12 12:59:00,
2013-01-12 07:05:00,64.2,61.6,29.74,South,180,0.0,0.0,91,0.00,,,0.00,WUHU216HW,2013-01-12 13:05:00,
2013-01-12 07:10:00,64.0,61.4,29.73,South,180,0.0,0.0,91,0.00,,,0.00,WUHU216HW,2013-01-12 13:10:00,
2013-01-12 07:15:00,64.0,61.4,29.74,South,180,0.0,0.0,91,0.00,,,0.00,WUHU216HW,2013-01-12 13:15:00,
2013-01-12 07:20:00,63.8,61.2,29.75,South,180,0.0,0.0,91,0.00,,,0.00,WUHU216HW,2013-01-12 13:20:00,
2013-01-12 07:25:00,64.0,61.4,29.75,South,180,0.0,0.0,91,0.00,,,0.00,WUHU216HW,2013-01-12 13:25:00,
2013-01-12 07:30:00,64.0,61.4,29.75,South,180,0.0,0.0,91,0.00,,,0.00,WUHU216HW,2013-01-12 13:30:00,
2013-01-12 07:35:00,64.0,61.4,29.75,South,180,0.0,0.0,91,0.00,,,0.00,WUHU216HW,2013-01-12 13:35:00,
2013-01-12 07:40:00,64.0,61.4,29.74,South,180,0.0,0.0,91,0.00,,,0.00,WUHU216HW,2013-01-12 13:40:00,
2013-01-12 07:45:00,64.0,61.1,29.75,South,180,0.0,0.0,90,0.00,,,0.00,WUHU216HW,2013-01-12 13:45:00,
2013-01-12 07:50:00,64.0,61.4,29.75,South,180,0.0,0.0,91,0.00,,,0.00,WUHU216HW,2013-01-12 13:50:00,
2013-01-12 07:55:00,64.2,61.6,29.75,South,180,0.0,0.0,91,0.00,,,0.00,WUHU216HW,2013-01-12 13:55:00,
2013-01-12 08:00:00,64.2,61.6,29.76,South,180,0.0,0.0,91,0.00,,,0.00,WUHU216HW,2013-01-12 14:00:00,
2013-01-12 08:06:00,64.9,62.0,29.76,South,180,0.0,0.0,90,0.00,,,0.00,WUHU216HW,2013-01-12 14:06:00,
2013-01-12 08:11:00,65.3,61.6,29.75,South,180,0.0,0.0,88,0.00,,,0.00,WUHU216HW,2013-01-12 14:11:00,
2013-01-12 08:16:00,65.1,61.8,29.75,South,180,0.0,0.0,89,0.00,,,0.00,WUHU216HW,2013-01-12 14:16:00,
2013-01-12 08:20:00,64.7,61.5,29.74,East,90,0.0,0.0,89,0.00,,,0.00,WUHU216HW,2013-01-12 14:20:00,
2013-01-12 08:26:00,64.7,61.6,29.74,East,90,0.0,0.0,90,0.00,,,0.00,WUHU216HW,2013-01-12 14:26:00,
2013-01-12 08:33:00,64.7,61.8,29.75,East,90,0.0,0.0,90,0.00,,,0.00,WUHU216HW,2013-01-12 14:33:00,
2013-01-12 08:39:00,65.8,62.8,29.75,East,90,0.0,0.0,90,0.00,,,0.00,WUHU216HW,2013-01-12 14:39:00,
2013-01-12 08:46:00,66.9,63.2,29.75,East,90,0.0,0.0,88,0.00,,,0.00,WUHU216HW,2013-01-12 14:46:00,
2013-01-12 08:51:00,67.1,63.0,29.74,East,90,0.0,0.0,87,0.00,,,0.00,WUHU216HW,2013-01-12 14:51:00,
2013-01-12 08:56:00,67.6,62.9,29.74,East,90,0.0,0.0,85,0.00,,,0.00,WUHU216HW,2013-01-12 14:56:00,
2013-01-12 09:01:00,67.8,63.1,29.75,East,90,0.0,0.0,85,0.00,,,0.00,WUHU216HW,2013-01-12 15:01:00,
2013-01-12 09:06:00,67.4,62.7,29.75,East,90,0.0,0.0,85,0.00,,,0.00,WUHU216HW,2013-01-12 15:06:00,
2013-01-12 09:11:00,66.7,62.3,29.75,East,90,0.0,0.0,86,0.00,,,0.00,WUHU216HW,2013-01-12 15:11:00,
2013-01-12 09:17:00,66.0,61.9,29.75,East,90,0.0,0.0,87,0.00,,,0.00,WUHU216HW,2013-01-12 15:17:00,
2013-01-12 09:22:00,65.8,61.8,29.75,East,90,0.0,0.0,87,0.00,,,0.00,WUHU216HW,2013-01-12 15:22:00,
2013-01-12 09:27:00,65.6,61.9,29.75,East,90,0.0,0.0,88,0.00,,,0.00,WUHU216HW,2013-01-12 15:27:00,
2013-01-12 09:32:00,65.4,61.8,29.75,East,90,0.0,0.0,88,0.00,,,0.00,WUHU216HW,2013-01-12 15:32:00,
2013-01-12 09:37:00,65.4,62.1,29.75,East,90,0.0,0.0,89,0.00,,,0.00,WUHU216HW,2013-01-12 15:37:00,
2013-01-12 09:42:00,65.1,61.8,29.75,East,90,0.0,0.0,89,0.00,,,0.00,WUHU216HW,2013-01-12 15:42:00,
2013-01-12 09:48:00,65.1,62.1,29.74,East,90,0.0,0.0,90,0.00,,,0.00,WUHU216HW,2013-01-12 15:48:00,
2013-01-12 09:53:00,65.1,62.1,29.74,East,90,0.0,0.0,90,0.00,,,0.00,WUHU216HW,2013-01-12 15:53:00,
2013-01-12 09:58:00,65.1,62.1,29.74,East,90,0.0,0.0,90,0.00,,,0.00,WUHU216HW,2013-01-12 15:58:00,
2013-01-12 10:03:00,65.1,62.1,29.74,East,90,0.0,0.0,90,0.00,,,0.00,WUHU216HW,2013-01-12 16:03:00,
2013-01-12 10:08:00,65.1,62.1,29.74,East,90,0.0,0.0,90,0.00,,,0.00,WUHU216HW,2013-01-12 16:08:00,
2013-01-12 10:13:00,65.1,62.1,29.74,West,270,0.0,0.0,90,0.00,,,0.00,WUHU216HW,2013-01-12 16:13:00,
2013-01-12 10:19:00,64.7,62.1,29.75,WNW,293,0.0,0.0,91,0.00,,,0.00,WUHU216HW,2013-01-12 16:19:00,
2013-01-12 10:24:00,64.7,62.1,29.74,WNW,293,0.0,0.0,91,0.00,,,0.00,WUHU216HW,2013-01-12 16:24:00,
2013-01-12 10:29:00,64.7,62.1,29.74,WNW,293,0.0,0.0,91,0.00,,,0.00,WUHU216HW,2013-01-12 16:29:00,
2013-01-12 10:34:00,64.7,62.1,29.74,WNW,293,0.0,0.0,91,0.00,,,0.00,WUHU216HW,2013-01-12 16:34:00,
2013-01-12 10:39:00,64.5,62.2,29.74,WNW,293,0.0,0.0,92,0.00,,,0.00,WUHU216HW,2013-01-12 16:39:00,
2013-01-12 10:44:00,64.7,62.4,29.74,WNW,293,0.0,0.0,92,0.02,,,0.00,WUHU216HW,2013-01-12 16:44:00,
2013-01-12 10:50:00,64.7,62.4,29.73,NW,315,0.0,0.0,92,0.02,,,0.02,WUHU216HW,2013-01-12 16:50:00,
2013-01-12 10:55:00,64.7,62.4,29.74,NNW,338,0.0,0.0,92,0.04,,,0.04,WUHU216HW,2013-01-12 16:55:00,
2013-01-12 11:00:00,64.7,62.4,29.74,North,0,0.0,0.0,92,0.04,,,0.04,WUHU216HW,2013-01-12 17:00:00,
2013-01-12 11:05:00,64.7,62.4,29.73,NNW,338,0.0,0.0,92,0.06,,,0.06,WUHU216HW,2013-01-12 17:05:00,
2013-01-12 11:10:00,64.5,62.2,29.74,North,0,3.5,3.5,92,0.06,,,0.06,WUHU216HW,2013-01-12 17:10:00,
2013-01-12 11:15:00,64.4,62.0,29.73,NNW,338,2.4,3.5,92,0.06,,,0.06,WUHU216HW,2013-01-12 17:15:00,
2013-01-12 11:21:00,63.8,61.2,29.72,NNW,338,0.0,3.3,91,0.06,,,0.06,WUHU216HW,2013-01-12 17:21:00,
2013-01-12 11:26:00,63.5,60.9,29.72,NNW,338,0.0,3.3,91,0.06,,,0.06,WUHU216HW,2013-01-12 17:26:00,
2013-01-12 11:31:00,63.1,60.2,29.72,North,0,6.2,6.2,90,0.08,,,0.08,WUHU216HW,2013-01-12 17:31:00,
2013-01-12 11:36:00,62.9,60.0,29.72,NNW,338,2.6,6.2,90,0.10,,,0.10,WUHU216HW,2013-01-12 17:36:00,
2013-01-12 11:41:00,61.8,58.6,29.71,North,0,0.0,8.0,88,0.10,,,0.10,WUHU216HW,2013-01-12 17:41:00,
2013-01-12 11:46:00,61.7,58.1,29.71,North,0,2.0,8.0,88,0.08,,,0.10,WUHU216HW,2013-01-12 17:46:00,
2013-01-12 11:52:00,61.5,57.9,29.71,West,270,5.3,5.3,88,0.06,,,0.10,WUHU216HW,2013-01-12 17:52:00,
2013-01-12 11:57:00,61.1,57.2,29.71,NNW,338,0.0,5.3,87,0.06,,,0.10,WUHU216HW,2013-01-12 17:57:00,
2013-01-12 12:02:00,60.9,57.1,29.70,NNE,23,0.0,5.3,87,0.04,,,0.10,WUHU216HW,2013-01-12 18:02:00,
2013-01-12 12:07:00,60.6,56.4,29.70,North,0,6.4,7.3,86,0.04,,,0.10,WUHU216HW,2013-01-12 18:07:00,
2013-01-12 12:12:00,60.6,56.4,29.70,North,0,0.0,7.3,86,0.04,,,0.10,WUHU216HW,2013-01-12 18:12:00,
2013-01-12 12:17:00,60.2,55.7,29.70,NNE,23,5.8,6.4,85,0.04,,,0.10,WUHU216HW,2013-01-12 18:17:00,
2013-01-12 12:23:00,59.9,55.0,29.69,NNE,23,5.3,12.7,84,0.04,,,0.10,WUHU216HW,2013-01-12 18:23:00,
2013-01-12 12:28:00,59.7,54.5,29.69,North,0,12.7,12.7,83,0.02,,,0.10,WUHU216HW,2013-01-12 18:28:00,
2013-01-12 12:33:00,59.5,54.3,29.69,North,0,1.5,14.0,83,0.02,,,0.10,WUHU216HW,2013-01-12 18:33:00,
2013-01-12 12:38:00,59.5,54.0,29.69,NNE,23,2.2,14.0,82,0.00,,,0.10,WUHU216HW,2013-01-12 18:38:00,
2013-01-12 12:43:00,59.5,54.0,29.69,NNE,23,3.8,5.8,82,0.00,,,0.10,WUHU216HW,2013-01-12 18:43:00,
2013-01-12 12:48:00,59.1,53.3,29.68,North,0,0.0,3.8,81,0.00,,,0.10,WUHU216HW,2013-01-12 18:48:00,
2013-01-12 12:54:00,58.8,52.7,29.69,North,0,0.0,4.6,80,0.00,,,0.10,WUHU216HW,2013-01-12 18:54:00,
2013-01-12 12:59:00,58.6,52.1,29.69,North,0,1.3,4.6,79,0.00,,,0.10,WUHU216HW,2013-01-12 18:59:00,
2013-01-12 13:04:00,58.8,52.3,29.69,NNW,338,4.4,4.4,79,0.00,,,0.10,WUHU216HW,2013-01-12 19:04:00,
2013-01-12 13:09:00,58.4,51.9,29.68,North,0,10.9,10.9,79,0.00,,,0.10,WUHU216HW,2013-01-12 19:09:00,
2013-01-12 13:14:00,58.6,52.1,29.67,NNW,338,4.6,10.9,79,0.00,,,0.10,WUHU216HW,2013-01-12 19:14:00,
2013-01-12 13:19:00,58.6,52.1,29.67,North,0,5.3,10.9,79,0.00,,,0.10,WUHU216HW,2013-01-12 19:19:00,
2013-01-12 13:25:00,57.9,50.3,29.68,North,0,1.1,6.9,76,0.00,,,0.10,WUHU216HW,2013-01-12 19:25:00,
2013-01-12 13:30:00,57.9,50.0,29.68,NNW,338,4.6,6.9,75,0.00,,,0.10,WUHU216HW,2013-01-12 19:30:00,
2013-01-12 13:35:00,57.7,49.8,29.66,NNW,338,1.7,5.8,75,0.00,,,0.10,WUHU216HW,2013-01-12 19:35:00,
2013-01-12 13:40:00,57.7,49.8,29.66,NNE,23,7.3,7.3,75,0.00,,,0.10,WUHU216HW,2013-01-12 19:40:00,
2013-01-12 13:45:00,57.9,50.0,29.66,NE,45,4.9,7.3,75,0.00,,,0.10,WUHU216HW,2013-01-12 19:45:00,
2013-01-12 13:50:00,58.1,49.8,29.65,North,0,6.2,6.2,74,0.00,,,0.10,WUHU216HW,2013-01-12 19:50:00,
2013-01-12 13:56:00,58.2,50.0,29.65,WNW,293,2.9,6.2,74,0.00,,,0.10,WUHU216HW,2013-01-12 19:56:00,
2013-01-12 14:01:00,58.1,49.1,29.66,WNW,293,3.8,3.8,72,0.00,,,0.10,WUHU216HW,2013-01-12 20:01:00,
2013-01-12 14:06:00,57.7,48.7,29.66,NNE,23,2.4,7.6,72,0.00,,,0.10,WUHU216HW,2013-01-12 20:06:00,
2013-01-12 14:11:00,57.7,48.9,29.66,NNE,23,0.0,7.6,72,0.00,,,0.10,WUHU216HW,2013-01-12 20:11:00,
2013-01-12 14:16:00,57.7,49.1,29.66,NNE,23,0.0,4.9,73,0.00,,,0.10,WUHU216HW,2013-01-12 20:16:00,
2013-01-12 14:21:00,58.1,49.8,29.66,NNE,23,0.0,4.9,74,0.00,,,0.10,WUHU216HW,2013-01-12 20:21:00,
2013-01-12 14:27:00,60.2,51.9,29.67,North,0,0.0,0.0,74,0.00,,,0.10,WUHU216HW,2013-01-12 20:27:00,
2013-01-12 14:32:00,59.5,49.4,29.68,NNW,338,0.0,0.0,69,0.00,,,0.10,WUHU216HW,2013-01-12 20:32:00,
2013-01-12 14:37:00,57.9,47.3,29.69,North,0,8.7,8.7,68,0.00,,,0.10,WUHU216HW,2013-01-12 20:37:00,
2013-01-12 14:41:00,57.7,47.6,29.68,West,270,3.5,8.7,69,0.00,,,0.10,WUHU216HW,2013-01-12 20:41:00,
2013-01-12 14:46:00,57.3,47.2,29.68,North,0,0.0,8.7,69,0.00,,,0.10,WUHU216HW,2013-01-12 20:46:00,
2013-01-12 14:51:00,57.3,47.2,29.68,NNW,338,5.8,5.8,69,0.00,,,0.10,WUHU216HW,2013-01-12 20:51:00,
2013-01-12 14:56:00,57.3,47.2,29.68,North,0,8.2,8.2,69,0.00,,,0.10,WUHU216HW,2013-01-12 20:56:00,
2013-01-12 15:01:00,57.3,46.8,29.69,NNE,23,5.8,8.2,68,0.00,,,0.10,WUHU216HW,2013-01-12 21:01:00,
2013-01-12 15:06:00,57.0,46.1,29.69,North,0,8.0,8.0,67,0.00,,,0.10,WUHU216HW,2013-01-12 21:06:00,
2013-01-12 15:11:00,57.2,46.6,29.69,NNW,338,0.0,9.6,68,0.00,,,0.10,WUHU216HW,2013-01-12 21:11:00,
2013-01-12 15:17:00,57.0,45.7,29.69,WNW,293,6.0,9.6,66,0.00,,,0.10,WUHU216HW,2013-01-12 21:17:00,
2013-01-12 15:22:00,56.1,44.4,29.69,NNE,23,7.8,7.8,65,0.00,,,0.10,WUHU216HW,2013-01-12 21:22:00,
2013-01-12 15:27:00,55.9,44.2,29.70,NNW,338,3.3,7.8,65,0.00,,,0.10,WUHU216HW,2013-01-12 21:27:00,
2013-01-12 15:32:00,55.5,44.3,29.71,NNW,338,10.5,10.5,66,0.00,,,0.10,WUHU216HW,2013-01-12 21:32:00,
2013-01-12 15:37:00,54.8,43.6,29.71,NNW,338,7.1,11.4,66,0.00,,,0.10,WUHU216HW,2013-01-12 21:37:00,
2013-01-12 15:42:00,53.9,43.2,29.73,NW,315,9.8,11.4,67,0.00,,,0.10,WUHU216HW,2013-01-12 21:42:00,
2013-01-12 15:47:00,53.2,42.9,29.74,WNW,293,12.3,12.3,68,0.00,,,0.10,WUHU216HW,2013-01-12 21:47:00,
2013-01-12 15:53:00,52.8,42.6,29.73,NW,315,10.9,12.3,68,0.00,,,0.10,WUHU216HW,2013-01-12 21:53:00,
2013-01-12 15:58:00,52.8,42.9,29.73,NNE,23,3.8,10.9,69,0.00,,,0.10,WUHU216HW,2013-01-12 21:58:00,
2013-01-12 16:03:00,53.0,42.7,29.74,NW,315,9.3,9.3,68,0.00,,,0.10,WUHU216HW,2013-01-12 22:03:00,
2013-01-12 16:08:00,52.8,42.9,29.74,NNW,338,7.3,9.3,69,0.00,,,0.10,WUHU216HW,2013-01-12 22:08:00,
2013-01-12 16:13:00,52.8,42.9,29.75,NNW,338,12.7,12.7,69,0.00,,,0.10,WUHU216HW,2013-01-12 22:13:00,
2013-01-12 16:18:00,52.5,43.0,29.76,NNW,338,1.7,12.7,70,0.00,,,0.10,WUHU216HW,2013-01-12 22:18:00,
2013-01-12 16:24:00,51.9,42.9,29.76,NNE,23,0.0,8.5,71,0.00,,,0.10,WUHU216HW,2013-01-12 22:24:00,
2013-01-12 16:29:00,51.9,42.9,29.76,NNW,338,10.5,13.6,71,0.00,,,0.10,WUHU216HW,2013-01-12 22:29:00,
2013-01-12 16:34:00,51.0,41.7,29.76,WNW,293,8.9,13.6,70,0.00,,,0.10,WUHU216HW,2013-01-12 22:34:00,
2013-01-12 16:39:00,50.5,41.1,29.76,NNE,23,6.2,10.5,70,0.00,,,0.10,WUHU216HW,2013-01-12 22:39:00,
2013-01-12 16:44:00,50.1,40.8,29.75,NW,315,10.2,10.5,70,0.00,,,0.10,WUHU216HW,2013-01-12 22:44:00,
2013-01-12 16:49:00,50.3,41.0,29.76,North,0,12.5,12.5,70,0.00,,,0.10,WUHU216HW,2013-01-12 22:49:00,
2013-01-12 16:55:00,50.1,40.4,29.77,NNE,23,7.6,12.5,69,0.00,,,0.10,WUHU216HW,2013-01-12 22:55:00,
2013-01-12 17:00:00,49.8,40.0,29.77,NNW,338,11.4,11.4,69,0.00,,,0.10,WUHU216HW,2013-01-12 23:00:00,
2013-01-12 17:05:00,49.8,40.0,29.78,North,0,9.6,11.4,69,0.00,,,0.10,WUHU216HW,2013-01-12 23:05:00,
2013-01-12 17:10:00,49.8,39.6,29.78,North,0,6.0,9.6,68,0.00,,,0.10,WUHU216HW,2013-01-12 23:10:00,
2013-01-12 17:15:00,49.4,38.9,29.78,NNW,338,1.5,9.6,67,0.00,,,0.10,WUHU216HW,2013-01-12 23:15:00,
2013-01-12 17:20:00,48.9,38.7,29.79,North,0,9.8,9.8,68,0.00,,,0.10,WUHU216HW,2013-01-12 23:20:00,
2013-01-12 17:26:00,48.7,38.2,29.79,NNE,23,9.3,9.8,67,0.00,,,0.10,WUHU216HW,2013-01-12 23:26:00,
2013-01-12 17:31:00,47.8,37.3,29.79,NNW,338,5.3,10.5,67,0.00,,,0.10,WUHU216HW,2013-01-12 23:31:00,
2013-01-12 17:36:00,47.8,37.3,29.80,WNW,293,5.3,10.5,67,0.00,,,0.10,WUHU216HW,2013-01-12 23:36:00,
2013-01-12 17:41:00,47.1,36.6,29.81,NNW,338,7.3,9.1,67,0.00,,,0.10,WUHU216HW,2013-01-12 23:41:00,
2013-01-12 17:46:00,47.1,36.6,29.82,North,0,7.3,7.3,67,0.00,,,0.10,WUHU216HW,2013-01-12 23:46:00,
2013-01-12 17:51:00,46.7,36.3,29.83,WNW,293,6.0,7.3,67,0.00,,,0.10,WUHU216HW,2013-01-12 23:51:00,
2013-01-12 17:57:00,46.5,36.1,29.83,NNW,338,7.3,10.5,67,0.00,,,0.10,WUHU216HW,2013-01-12 23:57:00,
2013-01-12 18:02:00,46.9,36.9,29.83,WNW,293,8.5,10.5,68,0.00,,,0.10,WUHU216HW,2013-01-13 00:02:00,
2013-01-12 18:07:00,45.6,35.3,29.83,WNW,293,6.0,12.3,67,0.00,,,0.10,WUHU216HW,2013-01-13 00:07:00,
2013-01-12 18:12:00,44.9,35.0,29.82,NNW,338,13.4,13.4,68,0.00,,,0.10,WUHU216HW,2013-01-13 00:12:00,
2013-01-12 18:17:00,45.6,36.1,29.84,North,0,4.9,13.4,69,0.00,,,0.10,WUHU216HW,2013-01-13 00:17:00,
2013-01-12 18:22:00,46.0,36.0,29.84,NNW,338,7.8,13.4,68,0.00,,,0.10,WUHU216HW,2013-01-13 00:22:00,
2013-01-12 18:28:00,45.6,35.7,29.84,NW,315,10.2,11.4,68,0.00,,,0.10,WUHU216HW,2013-01-13 00:28:00,
2013-01-12 18:33:00,44.4,34.8,29.84,North,0,8.7,10.2,69,0.00,,,0.10,WUHU216HW,2013-01-13 00:33:00,
2013-01-12 18:38:00,44.7,35.6,29.84,West,270,1.5,8.7,70,0.00,,,0.10,WUHU216HW,2013-01-13 00:38:00,
2013-01-12 18:43:00,44.4,35.2,29.85,NNW,338,8.2,8.7,70,0.00,,,0.10,WUHU216HW,2013-01-13 00:43:00,
2013-01-12 18:53:00,43.7,34.9,29.86,North,0,8.0,11.8,71,0.00,,,0.10,WUHU216HW,2013-01-13 00:53:00,
2013-01-12 18:58:00,43.8,34.7,29.86,NW,315,11.4,11.8,70,0.00,,,0.10,WUHU216HW,2013-01-13 00:58:00,
2013-01-12 19:03:00,46.0,38.2,29.86,NNW,338,7.8,11.4,74,0.00,,,0.10,WUHU216HW,2013-01-13 01:03:00,
2013-01-12 19:09:00,45.5,36.3,29.86,NNE,23,6.7,7.8,70,0.00,,,0.10,WUHU216HW,2013-01-13 01:09:00,
2013-01-12 19:14:00,45.1,35.9,29.86,NNE,23,7.8,7.8,70,0.00,,,0.10,WUHU216HW,2013-01-13 01:14:00,
2013-01-12 19:19:00,44.4,34.8,29.86,NNW,338,10.7,11.1,69,0.00,,,0.10,WUHU216HW,2013-01-13 01:19:00,
2013-01-12 19:24:00,44.2,34.7,29.86,NNE,23,7.3,11.1,69,0.00,,,0.10,WUHU216HW,2013-01-13 01:24:00,
2013-01-12 19:29:00,43.7,34.6,29.86,NW,315,3.8,7.3,70,0.00,,,0.10,WUHU216HW,2013-01-13 01:29:00,
2013-01-12 19:34:00,43.1,33.7,29.86,NNW,338,4.6,5.5,69,0.00,,,0.10,WUHU216HW,2013-01-13 01:34:00,
2013-01-12 19:39:00,42.6,33.2,29.86,WNW,293,4.2,6.7,69,0.00,,,0.10,WUHU216HW,2013-01-13 01:39:00,
2013-01-12 19:44:00,42.4,33.4,29.87,NNW,338,4.9,9.6,70,0.00,,,0.10,WUHU216HW,2013-01-13 01:44:00,
2013-01-12 19:49:00,42.0,33.0,29.87,NNE,23,2.9,9.6,70,0.00,,,0.10,WUHU216HW,2013-01-13 01:49:00,
2013-01-12 19:54:00,42.4,33.4,29.87,NNW,338,0.6,10.0,70,0.00,,,0.10,WUHU216HW,2013-01-13 01:54:00,
2013-01-12 19:59:00,42.4,33.0,29.87,NW,315,10.9,10.9,69,0.00,,,0.10,WUHU216HW,2013-01-13 01:59:00,
2013-01-12 20:04:00,42.0,33.0,29.86,NW,315,10.5,10.9,70,0.00,,,0.10,WUHU216HW,2013-01-13 02:04:00,
2013-01-12 20:09:00,42.4,33.0,29.85,North,0,9.8,10.9,69,0.00,,,0.10,WUHU216HW,2013-01-13 02:09:00,
2013-01-12 20:14:00,42.4,33.0,29.86,NNW,338,10.5,10.7,69,0.00,,,0.10,WUHU216HW,2013-01-13 02:14:00,
2013-01-12 20:20:00,42.6,33.2,29.87,NNE,23,6.0,10.5,69,0.00,,,0.10,WUHU216HW,2013-01-13 02:20:00,
2013-01-12 20:25:00,42.9,33.5,29.86,NNE,23,4.2,10.5,69,0.00,,,0.10,WUHU216HW,2013-01-13 02:25:00,
2013-01-12 20:30:00,42.6,32.8,29.86,North,0,2.0,7.6,68,0.00,,,0.10,WUHU216HW,2013-01-13 02:30:00,
2013-01-12 20:35:00,42.4,33.0,29.87,West,270,3.8,7.6,69,0.00,,,0.10,WUHU216HW,2013-01-13 02:35:00,
2013-01-12 20:40:00,42.4,32.6,29.88,NNW,338,6.4,6.4,68,0.00,,,0.10,WUHU216HW,2013-01-13 02:40:00,
2013-01-12 20:45:00,42.4,33.0,29.88,North,0,10.2,10.2,69,0.00,,,0.10,WUHU216HW,2013-01-13 02:45:00,
2013-01-12 20:50:00,42.4,33.0,29.88,NNE,23,10.0,10.2,69,0.00,,,0.10,WUHU216HW,2013-01-13 02:50:00,
2013-01-12 20:55:00,42.4,33.0,29.87,North,0,5.8,10.7,69,0.00,,,0.10,WUHU216HW,2013-01-13 02:55:00,
2013-01-12 21:00:00,42.4,32.6,29.88,NNE,23,7.3,13.4,68,0.00,,,0.10,WUHU216HW,2013-01-13 03:00:00,
2013-01-12 21:05:00,42.4,32.6,29.89,North,0,7.8,13.4,68,0.00,,,0.10,WUHU216HW,2013-01-13 03:05:00,
2013-01-12 21:10:00,42.4,32.2,29.89,North,0,3.3,7.8,67,0.00,,,0.10,WUHU216HW,2013-01-13 03:10:00,
2013-01-12 21:15:00,42.2,32.4,29.89,North,0,10.5,10.5,68,0.00,,,0.10,WUHU216HW,2013-01-13 03:15:00,
2013-01-12 21:20:00,42.2,32.4,29.89,NNE,23,13.4,13.4,68,0.00,,,0.10,WUHU216HW,2013-01-13 03:20:00,
2013-01-12 21:25:00,42.0,32.2,29.88,North,0,6.2,13.4,68,0.00,,,0.10,WUHU216HW,2013-01-13 03:25:00,
2013-01-12 21:30:00,42.6,33.2,29.89,WNW,293,0.0,13.4,69,0.00,,,0.10,WUHU216HW,2013-01-13 03:30:00,
2013-01-12 21:35:00,42.6,32.4,29.89,NNW,338,10.9,12.5,67,0.00,,,0.10,WUHU216HW,2013-01-13 03:35:00,
2013-01-12 21:41:00,42.4,32.2,29.90,North,0,7.6,10.9,67,0.00,,,0.10,WUHU216HW,2013-01-13 03:41:00,
2013-01-12 21:46:00,42.4,32.2,29.89,North,0,11.6,11.6,67,0.00,,,0.10,WUHU216HW,2013-01-13 03:46:00,
2013-01-12 21:51:00,42.4,32.2,29.89,NNE,23,5.1,11.6,67,0.00,,,0.10,WUHU216HW,2013-01-13 03:51:00,
2013-01-12 21:56:00,42.0,31.9,29.89,North,0,11.1,11.6,67,0.00,,,0.10,WUHU216HW,2013-01-13 03:56:00,
2013-01-12 22:01:00,42.0,32.2,29.89,North,0,5.5,12.3,68,0.00,,,0.10,WUHU216HW,2013-01-13 04:01:00,
2013-01-12 22:06:00,41.7,31.9,29.89,NNW,338,8.2,12.3,68,0.00,,,0.10,WUHU216HW,2013-01-13 04:06:00,
2013-01-12 22:11:00,41.9,32.1,29.88,NNW,338,6.4,8.2,68,0.00,,,0.10,WUHU216HW,2013-01-13 04:11:00,
2013-01-12 22:16:00,42.0,32.6,29.91,NNW,338,2.0,6.4,69,0.00,,,0.10,WUHU216HW,2013-01-13 04:16:00,
2013-01-12 22:21:00,41.9,32.1,29.90,NNW,338,6.2,7.1,68,0.00,,,0.10,WUHU216HW,2013-01-13 04:21:00,
2013-01-12 22:26:00,41.7,32.3,29.91,NNW,338,6.2,7.1,69,0.00,,,0.10,WUHU216HW,2013-01-13 04:26:00,
2013-01-12 22:31:00,41.3,32.3,29.92,NNE,23,0.0,6.2,70,0.00,,,0.10,WUHU216HW,2013-01-13 04:31:00,
2013-01-12 22:36:00,40.8,31.8,29.91,NNW,338,0.0,3.3,70,0.00,,,0.10,WUHU216HW,2013-01-13 04:36:00,
2013-01-12 22:41:00,41.1,32.5,29.91,WSW,248,2.6,5.8,71,0.00,,,0.10,WUHU216HW,2013-01-13 04:41:00,
2013-01-12 22:46:00,40.6,31.6,29.91,NNW,338,0.0,5.8,70,0.00,,,0.10,WUHU216HW,2013-01-13 04:46:00,
2013-01-12 22:51:00,40.2,31.2,29.92,North,0,8.0,8.0,70,0.00,,,0.10,WUHU216HW,2013-01-13 04:51:00,
2013-01-12 22:56:00,40.4,31.4,29.92,North,0,0.0,8.0,70,0.00,,,0.10,WUHU216HW,2013-01-13 04:56:00,
2013-01-12 23:00:00,40.2,30.9,29.92,NW,315,0.0,8.2,69,0.00,,,0.10,WUHU216HW,2013-01-13 05:00:00,
2013-01-12 23:02:00,40.2,31.2,29.92,NNW,338,0.0,8.2,70,0.00,,,0.10,WUHU216HW,2013-01-13 05:02:00,
2013-01-12 23:03:00,40.2,31.2,29.92,North,0,2.2,8.2,70,0.00,,,0.10,WUHU216HW,2013-01-13 05:03:00,
2013-01-12 23:08:00,40.6,31.6,29.91,NNW,338,5.5,6.7,70,0.00,,,0.10,WUHU216HW,2013-01-13 05:08:00,
2013-01-12 23:13:00,40.2,30.9,29.91,NW,315,1.7,6.7,69,0.00,,,0.10,WUHU216HW,2013-01-13 05:13:00,
2013-01-12 23:18:00,39.9,30.1,29.91,NNE,23,0.0,8.2,68,0.00,,,0.10,WUHU216HW,2013-01-13 05:18:00,
2013-01-12 23:23:00,40.2,30.9,29.92,West,270,5.1,11.8,69,0.00,,,0.10,WUHU216HW,2013-01-13 05:23:00,
2013-01-12 23:28:00,40.2,30.5,29.93,NW,315,1.5,11.8,68,0.00,,,0.10,WUHU216HW,2013-01-13 05:28:00,
2013-01-12 23:33:00,39.9,30.1,29.92,North,0,2.2,9.8,68,0.00,,,0.10,WUHU216HW,2013-01-13 05:33:00,
2013-01-12 23:38:00,39.7,30.3,29.92,WNW,293,4.0,4.0,69,0.00,,,0.10,WUHU216HW,2013-01-13 05:38:00,
2013-01-12 23:43:00,39.3,30.0,29.92,NNW,338,2.4,6.2,69,0.00,,,0.10,WUHU216HW,2013-01-13 05:43:00,
2013-01-12 23:48:00,38.8,29.4,29.93,NNW,338,2.0,6.2,69,0.00,,,0.10,WUHU216HW,2013-01-13 05:48:00,
2013-01-12 23:53:00,39.0,29.6,29.93,North,0,0.0,2.2,69,0.00,,,0.10,WUHU216HW,2013-01-13 05:53:00,
2013-01-12 23:58:00,39.3,30.0,29.93,North,0,10.0,10.0,69,0.00,,,0.10,WUHU216HW,2013-01-13 05:58:00,